Delaware County Johnson Field Muncie US
ICAO: KMIE
IATA: MIE
Category: Medium
Scheduled Services: No

Elevation: 937 ft
TransAlt. 18000 ft.

Airport Communications:
ASOS:114.4
ATIS:133.25
INDIANAPOLIS CNTR:120.65
CTAF:120.1
MUNCIE GND:121.9
TERRE HAUTE RDO:114.4
MUNCIE TWR:120.1
UNICOM:122.95

KMIE Zoom In..

If you have problems with the map follow the link
https://www.worldairports.se/pages/airport.php?
ICAO=KMIE

Runways:

(A) RW 02 length 5198 ft width 100 ft
---- / hdg 25

(B) RW 14 length 6500 ft width 150 ft
---- / hdg 139

(C) RW 20 length 5198 ft width 100 ft
---- / hdg 205

(D) RW 32 length 6500 ft width 150 ft
ILS 109.10 / hdg 319

Location; KMIE
Day. 16 / Time. 03.01 Zulu
* Altimeter: 29.95
* Temperature: 01° c. 33.8°f.
* Wind from: 250° Speed 08 kn.
Dewpoint: -01° c.
Visibility: 10 Statute Miles.
Clouds: Overcast 900 ft.

KMIE 160301Z 25008KT 10SM OVC009 01/M01 A2995 RMK AO2 CIG 008V013 T00111011


Wind From 250°
Speed 08 kn.

 
 
jpsmedia.com for Web Design worldairports.se 2018   terms of use